Year,Month,Day,Hour,Minute,Value (Times are PST for windspeed in km/hr)
2009,03,30,01,01,35.70
2009,03,30,01,02,35.70
2009,03,30,01,03,35.70
2009,03,30,01,04,35.70
2009,03,30,01,05,35.70
2009,03,30,01,06,38.70
2009,03,30,01,07,38.70
2009,03,30,01,08,38.70
2009,03,30,01,09,38.70
2009,03,30,01,10,50.70
2009,03,30,01,11,50.70
2009,03,30,01,12,50.70
2009,03,30,01,13,50.70
2009,03,30,01,14,50.70
2009,03,30,01,15,47.60
2009,03,30,01,16,47.60
2009,03,30,01,17,47.60
2009,03,30,01,18,47.60
2009,03,30,01,19,44.60
2009,03,30,01,20,44.60
2009,03,30,01,21,44.60
2009,03,30,01,22,44.60
2009,03,30,01,23,47.60
2009,03,30,01,24,47.60
2009,03,30,01,25,47.60
2009,03,30,01,26,47.60
2009,03,30,01,27,47.60
2009,03,30,01,28,50.70
2009,03,30,01,29,47.60
2009,03,30,01,30,47.60
2009,03,30,01,31,47.60
2009,03,30,01,32,47.60
2009,03,30,01,33,50.70
2009,03,30,01,34,50.70
2009,03,30,01,35,50.70
2009,03,30,01,36,50.70
2009,03,30,01,37,50.70
2009,03,30,01,38,56.70
2009,03,30,01,39,56.70
2009,03,30,01,40,56.70
2009,03,30,01,41,56.70
2009,03,30,01,42,56.70
2009,03,30,01,43,38.70
2009,03,30,01,44,38.70
2009,03,30,01,45,38.70
2009,03,30,01,46,38.70
2009,03,30,01,47,35.70
2009,03,30,01,48,35.70
2009,03,30,01,49,35.70
2009,03,30,01,50,35.70
2009,03,30,01,51,38.70
2009,03,30,01,52,35.70
2009,03,30,01,53,35.70
2009,03,30,01,54,35.70
2009,03,30,01,55,35.70
2009,03,30,01,56,35.70
2009,03,30,01,57,35.70
2009,03,30,01,58,35.70
2009,03,30,01,59,35.70
2009,03,30,02,00,35.70
2009,03,30,02,01,47.60
2009,03,30,02,02,47.60
2009,03,30,02,03,47.60
2009,03,30,02,04,47.60
2009,03,30,02,06,50.70
2009,03,30,02,07,50.70
2009,03,30,02,08,50.70
2009,03,30,02,09,50.70
2009,03,30,02,10,47.60
2009,03,30,02,11,47.60
2009,03,30,02,12,47.60
2009,03,30,02,13,47.60
2009,03,30,02,15,47.60
2009,03,30,02,16,47.60
2009,03,30,02,17,47.60
2009,03,30,02,18,56.70
2009,03,30,02,19,56.70
2009,03,30,02,20,56.70
2009,03,30,02,21,56.70
2009,03,30,02,22,56.70
2009,03,30,02,23,59.60
2009,03,30,02,24,59.60
2009,03,30,02,25,59.60
2009,03,30,02,26,59.60
2009,03,30,02,27,59.60
2009,03,30,02,28,44.60
2009,03,30,02,29,44.60
2009,03,30,02,30,44.60
2009,03,30,02,31,44.60
2009,03,30,02,32,44.60
2009,03,30,02,33,59.60
2009,03,30,02,34,59.60
2009,03,30,02,35,59.60
2009,03,30,02,36,59.60
2009,03,30,02,37,59.60
2009,03,30,02,38,56.70
2009,03,30,02,39,56.70
2009,03,30,02,40,56.70
2009,03,30,02,41,56.70
2009,03,30,02,42,50.70
2009,03,30,02,43,50.70
2009,03,30,02,44,50.70
2009,03,30,02,45,50.70
2009,03,30,02,46,59.60
2009,03,30,02,47,59.60
2009,03,30,02,48,59.60
2009,03,30,02,49,59.60
2009,03,30,02,50,59.60
2009,03,30,02,51,62.60
2009,03,30,02,52,62.60
2009,03,30,02,53,62.60
2009,03,30,02,54,62.60
2009,03,30,02,55,62.60
2009,03,30,02,56,50.70
2009,03,30,02,57,50.70
2009,03,30,02,58,50.70
2009,03,30,02,59,50.70
2009,03,30,03,00,59.60
2009,03,30,03,01,59.60
2009,03,30,03,02,59.60
2009,03,30,03,03,59.60
2009,03,30,03,04,50.70
2009,03,30,03,05,50.70
2009,03,30,03,06,50.70
2009,03,30,03,07,50.70
2009,03,30,03,16,53.70
2009,03,30,03,17,53.70
2009,03,30,03,18,44.60
2009,03,30,03,19,44.60
2009,03,30,03,20,44.60
2009,03,30,03,21,44.60
2009,03,30,03,22,44.60
2009,03,30,03,23,44.60
2009,03,30,03,24,44.60
2009,03,30,03,25,44.60
2009,03,30,03,26,44.60
2009,03,30,03,27,38.70
2009,03,30,03,28,38.70
2009,03,30,03,29,38.70
2009,03,30,03,30,38.70
2009,03,30,03,31,38.70
2009,03,30,03,32,53.70
2009,03,30,03,33,53.70
2009,03,30,03,34,53.70
2009,03,30,03,35,53.70
2009,03,30,03,36,41.70
2009,03,30,03,37,41.70
2009,03,30,03,38,41.70
2009,03,30,03,39,41.70
2009,03,30,03,40,41.70
2009,03,30,03,41,41.70
2009,03,30,03,42,41.70
2009,03,30,03,43,41.70
2009,03,30,03,44,41.70
2009,03,30,03,45,59.60
2009,03,30,03,46,59.60
2009,03,30,03,47,59.60
2009,03,30,03,48,59.60
2009,03,30,03,49,59.60
2009,03,30,03,50,59.60
2009,03,30,03,51,59.60
2009,03,30,03,52,59.60
2009,03,30,03,53,59.60
2009,03,30,03,54,68.50
2009,03,30,03,55,68.50
2009,03,30,03,56,68.50
2009,03,30,03,57,68.50
2009,03,30,03,59,50.70
2009,03,30,04,00,44.60
2009,03,30,04,01,44.60
2009,03,30,04,02,44.60
2009,03,30,04,03,44.60
2009,03,30,04,04,56.70
2009,03,30,04,05,56.70
2009,03,30,04,06,56.70
2009,03,30,04,07,56.70
2009,03,30,04,08,56.70
2009,03,30,04,09,65.60
2009,03,30,04,10,65.60
2009,03,30,04,11,65.60
2009,03,30,04,12,50.70
2009,03,30,04,13,50.70
2009,03,30,04,14,50.70
2009,03,30,04,15,50.70
2009,03,30,04,16,50.70
2009,03,30,04,17,50.70
2009,03,30,04,18,41.70
2009,03,30,04,19,41.70
2009,03,30,04,20,41.70
2009,03,30,04,21,41.70
2009,03,30,04,22,59.60
2009,03,30,04,23,59.60
2009,03,30,04,24,59.60
2009,03,30,04,25,59.60
2009,03,30,04,26,53.70
2009,03,30,04,27,53.70
2009,03,30,04,28,53.70
2009,03,30,04,29,53.70
2009,03,30,04,30,44.60
2009,03,30,04,31,44.60
2009,03,30,04,32,44.60
2009,03,30,04,33,44.60
2009,03,30,04,34,53.70
2009,03,30,04,35,53.70
2009,03,30,04,36,74.50
2009,03,30,04,37,74.50
2009,03,30,04,38,74.50
2009,03,30,04,39,74.50
2009,03,30,04,40,62.60
2009,03,30,04,41,62.60
2009,03,30,04,42,62.60
2009,03,30,04,43,62.60
2009,03,30,04,44,62.60
2009,03,30,04,45,62.60
2009,03,30,04,46,62.60
2009,03,30,04,47,62.60
2009,03,30,04,48,62.60
2009,03,30,04,49,71.50
2009,03,30,04,50,65.60
2009,03,30,04,51,65.60
2009,03,30,04,52,65.60
2009,03,30,04,53,65.60
2009,03,30,04,54,56.70
2009,03,30,04,55,56.70
2009,03,30,04,56,56.70
2009,03,30,04,57,56.70
2009,03,30,04,58,56.70
2009,03,30,04,59,59.60
2009,03,30,05,00,59.60
2009,03,30,05,01,59.60
2009,03,30,05,02,59.60
2009,03,30,05,03,59.60
2009,03,30,05,04,62.60
2009,03,30,05,05,62.60
2009,03,30,05,06,62.60
2009,03,30,05,07,62.60
2009,03,30,05,08,62.60
2009,03,30,05,09,62.60
2009,03,30,05,10,44.60
2009,03,30,05,11,44.60
2009,03,30,05,12,44.60
2009,03,30,05,13,44.60
2009,03,30,05,14,44.60
2009,03,30,05,15,44.60
2009,03,30,05,16,44.60
2009,03,30,05,17,44.60
2009,03,30,05,18,44.60
2009,03,30,05,19,44.60
2009,03,30,05,20,44.60
2009,03,30,05,21,53.70
2009,03,30,05,22,53.70
2009,03,30,05,23,53.70
2009,03,30,05,24,53.70
2009,03,30,05,25,53.70
2009,03,30,05,26,50.70
2009,03,30,05,27,56.70
2009,03,30,05,28,56.70
2009,03,30,05,29,56.70
2009,03,30,05,30,56.70
2009,03,30,05,31,38.70
2009,03,30,05,32,38.70
2009,03,30,05,33,38.70
2009,03,30,05,34,38.70
2009,03,30,05,35,38.70
2009,03,30,05,36,50.70
2009,03,30,05,37,50.70
2009,03,30,05,38,50.70
2009,03,30,05,39,50.70
2009,03,30,05,40,50.70
2009,03,30,05,41,50.70
2009,03,30,05,42,50.70
2009,03,30,05,43,50.70
2009,03,30,05,44,50.70
2009,03,30,05,45,44.60
2009,03,30,05,46,44.60
2009,03,30,05,47,44.60
2009,03,30,05,48,44.60
2009,03,30,05,49,44.60
2009,03,30,05,50,68.50
2009,03,30,05,51,68.50
2009,03,30,05,52,68.50
2009,03,30,05,53,68.50
2009,03,30,05,54,68.50
2009,03,30,05,55,59.60
2009,03,30,05,56,59.60
2009,03,30,05,57,59.60
2009,03,30,05,58,59.60
2009,03,30,05,59,59.60
2009,03,30,06,00,59.60
2009,03,30,06,01,59.60
2009,03,30,06,02,59.60
2009,03,30,06,03,59.60
2009,03,30,06,04,59.60
2009,03,30,06,05,65.60
2009,03,30,06,06,62.60
2009,03,30,06,07,62.60
2009,03,30,06,08,62.60
2009,03,30,06,09,62.60
2009,03,30,06,10,62.60
2009,03,30,06,11,62.60
2009,03,30,06,12,62.60
2009,03,30,06,13,59.60
2009,03,30,06,14,59.60
2009,03,30,06,15,59.60
2009,03,30,06,16,59.60
2009,03,30,06,17,59.60
2009,03,30,06,18,62.60
2009,03,30,06,19,62.60
2009,03,30,06,20,62.60
2009,03,30,06,21,62.60
2009,03,30,06,22,62.60
2009,03,30,06,23,59.60
2009,03,30,06,24,53.70
2009,03,30,06,25,53.70
2009,03,30,06,26,53.70
2009,03,30,06,27,62.60
2009,03,30,06,28,62.60
2009,03,30,06,29,62.60
2009,03,30,06,30,62.60
2009,03,30,06,31,59.60
2009,03,30,06,32,59.60
2009,03,30,06,33,59.60
2009,03,30,06,34,59.60
2009,03,30,06,35,59.60
2009,03,30,06,36,62.60
2009,03,30,06,37,62.60
2009,03,30,06,38,62.60
2009,03,30,06,39,62.60
2009,03,30,06,41,62.60
2009,03,30,06,42,62.60
2009,03,30,06,43,62.60
2009,03,30,06,44,62.60
2009,03,30,06,45,62.60
2009,03,30,06,46,62.60
2009,03,30,06,47,62.60
2009,03,30,06,48,62.60
2009,03,30,06,49,62.60
2009,03,30,06,50,62.60
2009,03,30,06,51,53.70
2009,03,30,06,52,53.70
2009,03,30,06,53,53.70
2009,03,30,06,54,53.70
2009,03,30,06,55,53.70
2009,03,30,06,56,62.60
2009,03,30,06,57,62.60
2009,03,30,06,58,62.60
2009,03,30,06,59,62.60
2009,03,30,07,00,62.60
2009,03,30,07,01,62.60
2009,03,30,07,02,62.60
2009,03,30,07,03,62.60
2009,03,30,07,04,35.70
2009,03,30,07,05,35.70
2009,03,30,07,06,35.70
2009,03,30,07,07,35.70
2009,03,30,07,08,35.70
2009,03,30,07,09,35.70
2009,03,30,07,10,35.70
2009,03,30,07,11,35.70
2009,03,30,07,12,35.70
2009,03,30,07,13,35.70
2009,03,30,07,14,47.60
2009,03,30,07,15,47.60
2009,03,30,07,16,47.60
2009,03,30,07,17,47.60
2009,03,30,07,18,47.60
2009,03,30,07,19,47.60
2009,03,30,07,20,47.60
2009,03,30,07,21,47.60
2009,03,30,07,22,38.70
2009,03,30,07,23,44.60
2009,03,30,07,24,44.60
2009,03,30,07,25,44.60
2009,03,30,07,26,44.60
2009,03,30,07,27,44.60
2009,03,30,07,28,44.60
2009,03,30,07,29,44.60
2009,03,30,07,30,44.60
2009,03,30,07,31,44.60
2009,03,30,07,32,59.60
2009,03,30,07,33,59.60
2009,03,30,07,34,59.60
2009,03,30,07,35,59.60
2009,03,30,07,36,59.60
2009,03,30,07,37,56.70
2009,03,30,07,38,56.70
2009,03,30,07,39,56.70
2009,03,30,07,40,56.70
2009,03,30,07,41,56.70
2009,03,30,07,42,53.70
2009,03,30,07,44,53.70
2009,03,30,07,45,53.70
2009,03,30,07,46,53.70
2009,03,30,07,47,53.70
2009,03,30,07,48,53.70
2009,03,30,07,49,53.70
2009,03,30,07,50,53.70
2009,03,30,07,51,53.70
2009,03,30,07,52,56.70
2009,03,30,07,53,56.70
2009,03,30,07,54,56.70
2009,03,30,07,55,59.60
2009,03,30,07,56,59.60
2009,03,30,07,58,59.60
2009,03,30,07,59,50.70
2009,03,30,08,00,50.70
2009,03,30,08,01,38.70
2009,03,30,08,02,38.70
2009,03,30,08,03,38.70
2009,03,30,08,04,38.70
2009,03,30,08,05,50.70
2009,03,30,08,06,50.70
2009,03,30,08,07,50.70
2009,03,30,08,08,50.70
2009,03,30,08,09,50.70
2009,03,30,08,10,50.70
2009,03,30,08,11,50.70
2009,03,30,08,12,50.70
2009,03,30,08,13,44.60
2009,03,30,08,14,44.60
2009,03,30,08,15,44.60
2009,03,30,08,16,44.60
2009,03,30,08,17,38.70
2009,03,30,08,18,38.70
2009,03,30,08,19,38.70
2009,03,30,08,20,38.70
2009,03,30,08,21,38.70
2009,03,30,08,22,38.70
2009,03,30,08,23,38.70
2009,03,30,08,24,38.70
2009,03,30,08,25,38.70
2009,03,30,08,26,38.70
2009,03,30,08,27,38.70
2009,03,30,08,28,44.60
2009,03,30,08,29,44.60
2009,03,30,08,30,44.60
2009,03,30,08,31,44.60
2009,03,30,08,32,44.60
2009,03,30,08,33,44.60
2009,03,30,08,34,44.60
2009,03,30,08,35,44.60
2009,03,30,08,36,44.60
2009,03,30,08,37,44.60
2009,03,30,08,38,44.60
2009,03,30,08,39,44.60
2009,03,30,08,40,44.60
2009,03,30,08,41,35.70
2009,03,30,08,42,35.70
2009,03,30,08,43,35.70
2009,03,30,08,44,35.70
2009,03,30,08,45,38.70
2009,03,30,08,46,38.70
2009,03,30,08,47,38.70
2009,03,30,08,49,32.80
2009,03,30,08,50,32.80
2009,03,30,08,51,32.80
2009,03,30,08,52,32.80
2009,03,30,08,53,32.80
2009,03,30,08,54,32.80
2009,03,30,08,55,41.70
2009,03,30,08,56,41.70
2009,03,30,08,57,41.70
2009,03,30,08,58,41.70
2009,03,30,08,59,29.80
2009,03,30,09,00,29.80
2009,03,30,09,01,29.80
2009,03,30,09,02,29.80
2009,03,30,09,03,29.80
2009,03,30,09,04,29.80
2009,03,30,09,05,29.80
2009,03,30,09,06,29.80
2009,03,30,09,07,29.80
2009,03,30,09,08,29.80
2009,03,30,09,09,29.80
2009,03,30,09,11,26.90
2009,03,30,09,12,26.90
2009,03,30,09,13,29.80
2009,03,30,09,14,29.80
2009,03,30,09,15,29.80
2009,03,30,09,16,29.80
2009,03,30,09,17,35.70
2009,03,30,09,18,35.70
2009,03,30,09,19,35.70
2009,03,30,09,20,35.70
2009,03,30,09,21,35.70
2009,03,30,09,22,35.70
2009,03,30,09,23,35.70
2009,03,30,09,24,35.70
2009,03,30,09,25,35.70
2009,03,30,09,26,41.70
2009,03,30,09,27,41.70
2009,03,30,09,28,32.80
2009,03,30,09,29,32.80
2009,03,30,09,30,32.80
2009,03,30,09,31,32.80
2009,03,30,09,32,32.80
2009,03,30,09,33,41.70
2009,03,30,09,34,38.70
2009,03,30,09,35,29.80
2009,03,30,09,36,29.80
2009,03,30,09,37,29.80
2009,03,30,09,38,29.80
2009,03,30,09,39,38.70
2009,03,30,09,40,38.70
2009,03,30,09,41,38.70
2009,03,30,09,42,38.70
2009,03,30,09,43,38.70
2009,03,30,09,44,38.70
2009,03,30,09,45,38.70
2009,03,30,09,46,38.70
2009,03,30,09,47,38.70
2009,03,30,09,48,38.70
2009,03,30,09,49,38.70
2009,03,30,09,50,38.70
2009,03,30,09,51,38.70
2009,03,30,09,52,38.70
2009,03,30,09,53,29.80
2009,03,30,09,54,29.80
2009,03,30,09,55,29.80
2009,03,30,09,57,41.70
2009,03,30,09,58,41.70
2009,03,30,09,59,41.70
2009,03,30,10,00,41.70
2009,03,30,10,01,41.70
2009,03,30,10,02,41.70
2009,03,30,10,03,41.70
2009,03,30,10,04,41.70
2009,03,30,10,05,38.70
2009,03,30,10,06,38.70
2009,03,30,10,07,38.70
2009,03,30,10,08,38.70
2009,03,30,10,09,38.70
2009,03,30,10,10,38.70
2009,03,30,10,11,47.60
2009,03,30,10,12,47.60
2009,03,30,10,13,47.60
2009,03,30,10,14,47.60
2009,03,30,10,15,47.60
2009,03,30,10,16,47.60
2009,03,30,10,17,47.60
2009,03,30,10,18,47.60
2009,03,30,10,19,47.60
2009,03,30,10,20,35.70
2009,03,30,10,21,35.70
2009,03,30,10,22,35.70
2009,03,30,10,23,32.80
2009,03,30,10,24,32.80
2009,03,30,10,25,32.80
2009,03,30,10,26,32.80
2009,03,30,10,27,26.90
2009,03,30,10,28,26.90
2009,03,30,10,29,26.90
2009,03,30,10,30,26.90
2009,03,30,10,31,26.90
2009,03,30,10,33,35.70
2009,03,30,10,34,35.70
2009,03,30,10,35,35.70
2009,03,30,10,36,35.70
2009,03,30,10,37,35.70
2009,03,30,10,38,32.80
2009,03,30,10,39,32.80
2009,03,30,10,40,32.80
2009,03,30,10,41,32.80
2009,03,30,10,42,32.80
2009,03,30,10,43,32.80
2009,03,30,10,44,32.80
2009,03,30,10,45,29.80
2009,03,30,10,46,29.80
2009,03,30,10,47,29.80
2009,03,30,10,48,29.80
2009,03,30,10,49,29.80
2009,03,30,10,50,29.80
2009,03,30,10,51,29.80
2009,03,30,10,52,29.80
2009,03,30,10,53,29.80
2009,03,30,10,54,29.80
2009,03,30,10,55,29.80
2009,03,30,10,56,29.80
2009,03,30,10,57,29.80
2009,03,30,10,58,29.80
2009,03,30,10,59,20.90
2009,03,30,11,00,20.90
2009,03,30,11,01,20.90
2009,03,30,11,02,20.90
2009,03,30,11,03,20.90
2009,03,30,11,04,20.90
2009,03,30,11,05,26.90
2009,03,30,11,06,26.90
2009,03,30,11,07,26.90
2009,03,30,11,08,26.90
2009,03,30,11,09,23.90
2009,03,30,11,10,23.90
2009,03,30,11,11,23.90
2009,03,30,11,12,23.90
2009,03,30,11,13,23.90
2009,03,30,11,14,23.90
2009,03,30,11,15,23.90
2009,03,30,11,16,23.90
2009,03,30,11,17,23.90
2009,03,30,11,18,23.90
2009,03,30,11,19,23.90
2009,03,30,11,20,23.90
2009,03,30,11,21,38.70
2009,03,30,11,22,38.70
2009,03,30,11,23,38.70
2009,03,30,11,24,38.70
2009,03,30,11,25,38.70
2009,03,30,11,26,38.70
2009,03,30,11,27,38.70
2009,03,30,11,28,38.70
2009,03,30,11,29,38.70
2009,03,30,11,30,38.70
2009,03,30,11,31,38.70
2009,03,30,11,32,38.70
2009,03,30,11,33,38.70
2009,03,30,11,34,38.70
2009,03,30,11,35,38.70
2009,03,30,11,36,38.70
2009,03,30,11,37,38.70
2009,03,30,11,38,38.70
2009,03,30,11,39,26.90
2009,03,30,11,40,26.90
2009,03,30,11,41,32.80
2009,03,30,11,43,32.80
2009,03,30,11,44,32.80
2009,03,30,11,45,32.80
2009,03,30,11,46,32.80
2009,03,30,11,47,32.80
2009,03,30,11,48,32.80
2009,03,30,11,49,32.80
2009,03,30,11,50,32.80
2009,03,30,11,51,32.80
2009,03,30,11,52,32.80
2009,03,30,11,53,32.80
2009,03,30,11,54,32.80
2009,03,30,11,55,32.80
2009,03,30,11,56,32.80
2009,03,30,11,57,38.70
2009,03,30,11,58,38.70
2009,03,30,11,59,38.70
2009,03,30,12,00,38.70
2009,03,30,12,01,38.70
2009,03,30,12,02,38.70
2009,03,30,12,03,38.70
2009,03,30,12,04,38.70
2009,03,30,12,05,38.70
2009,03,30,12,06,38.70
2009,03,30,12,07,38.70
2009,03,30,12,08,38.70
2009,03,30,12,09,38.70
2009,03,30,12,10,38.70
2009,03,30,12,11,35.70
2009,03,30,12,12,35.70
2009,03,30,12,13,35.70
2009,03,30,12,14,35.70
2009,03,30,12,15,29.80
2009,03,30,12,16,29.80
2009,03,30,12,17,29.80
2009,03,30,12,18,29.80
2009,03,30,12,19,29.80
2009,03,30,12,20,29.80
2009,03,30,12,21,29.80
2009,03,30,12,22,29.80
2009,03,30,12,23,29.80
2009,03,30,12,24,29.80
2009,03,30,12,25,29.80
2009,03,30,12,26,29.80
2009,03,30,12,27,29.80
2009,03,30,12,28,29.80
2009,03,30,12,29,29.80
2009,03,30,12,30,29.80
2009,03,30,12,31,29.80
2009,03,30,12,32,29.80
2009,03,30,12,33,32.80
2009,03,30,12,34,32.80
2009,03,30,12,35,26.90
2009,03,30,12,36,26.90
2009,03,30,12,37,26.90
2009,03,30,12,38,26.90
2009,03,30,12,39,32.80
2009,03,30,12,40,32.80
2009,03,30,12,41,32.80
2009,03,30,12,42,32.80
2009,03,30,12,43,32.80
2009,03,30,12,44,35.70
2009,03,30,12,45,35.70
2009,03,30,12,46,35.70
2009,03,30,12,47,35.70
2009,03,30,12,48,35.70
2009,03,30,12,49,35.70
2009,03,30,12,50,35.70
2009,03,30,12,51,35.70
2009,03,30,12,52,35.70
2009,03,30,12,53,20.90
2009,03,30,12,54,20.90
2009,03,30,12,55,20.90
2009,03,30,12,56,20.90
2009,03,30,12,57,23.90
2009,03,30,12,58,23.90
2009,03,30,12,59,23.90
2009,03,30,13,00,23.90
2009,03,30,13,01,23.90
2009,03,30,13,02,29.80
2009,03,30,13,03,29.80
2009,03,30,13,04,29.80
2009,03,30,13,05,18.00
2009,03,30,13,06,18.00
2009,03,30,13,07,18.00
2009,03,30,13,08,18.00
2009,03,30,13,09,23.90
2009,03,30,13,10,23.90
2009,03,30,13,11,23.90
2009,03,30,13,12,23.90
2009,03,30,13,13,23.90
2009,03,30,13,14,23.90
2009,03,30,13,15,23.90
2009,03,30,13,16,23.90
2009,03,30,13,17,23.90
2009,03,30,13,18,23.90
2009,03,30,13,19,23.90
2009,03,30,13,20,20.90
2009,03,30,13,21,20.90
2009,03,30,13,22,20.90
2009,03,30,13,23,20.90
2009,03,30,13,24,20.90
2009,03,30,13,25,20.90
2009,03,30,13,26,20.90
2009,03,30,13,27,20.90
2009,03,30,13,28,20.90
2009,03,30,13,29,26.90
2009,03,30,13,30,26.90
2009,03,30,13,31,26.90
2009,03,30,13,32,26.90
2009,03,30,13,33,26.90
2009,03,30,13,34,26.90
2009,03,30,13,35,26.90
2009,03,30,13,36,26.90
2009,03,30,13,37,26.90
2009,03,30,13,38,35.70
2009,03,30,13,39,35.70
2009,03,30,13,40,35.70
2009,03,30,13,41,35.70
2009,03,30,13,42,35.70
2009,03,30,13,43,35.70
2009,03,30,13,44,35.70
2009,03,30,13,45,35.70
2009,03,30,13,46,35.70
2009,03,30,13,47,38.70
2009,03,30,13,48,38.70
2009,03,30,13,49,38.70
2009,03,30,13,50,38.70
2009,03,30,13,51,38.70
2009,03,30,13,52,38.70
2009,03,30,13,53,38.70
2009,03,30,13,54,38.70
2009,03,30,13,55,38.70
2009,03,30,13,56,38.70
2009,03,30,13,57,38.70
2009,03,30,13,58,38.70
2009,03,30,13,59,29.80
2009,03,30,14,00,29.80
2009,03,30,14,01,29.80
2009,03,30,14,02,29.80
2009,03,30,14,03,29.80
2009,03,30,14,04,29.80
2009,03,30,14,05,29.80
2009,03,30,14,06,29.80
2009,03,30,14,07,29.80
2009,03,30,14,08,29.80
2009,03,30,14,09,29.80
2009,03,30,14,10,29.80
2009,03,30,14,11,29.80
2009,03,30,14,12,29.80
2009,03,30,14,13,29.80
2009,03,30,14,14,29.80
2009,03,30,14,15,29.80
2009,03,30,14,16,29.80
2009,03,30,14,17,26.90
2009,03,30,14,18,26.90
2009,03,30,14,19,26.90
2009,03,30,14,20,26.90
2009,03,30,14,22,26.90
2009,03,30,14,23,26.90
2009,03,30,14,24,26.90
2009,03,30,14,25,26.90
2009,03,30,14,26,26.90
2009,03,30,14,27,26.90
2009,03,30,14,28,26.90
2009,03,30,14,29,26.90
2009,03,30,14,30,26.90
2009,03,30,14,31,26.90
2009,03,30,14,32,26.90
2009,03,30,14,33,26.90
2009,03,30,14,34,26.90
2009,03,30,14,35,26.90
2009,03,30,14,36,26.90
2009,03,30,14,37,26.90
2009,03,30,14,38,26.90
2009,03,30,14,39,11.90
2009,03,30,14,40,11.90
2009,03,30,14,41,20.90
2009,03,30,14,42,20.90
2009,03,30,14,43,20.90
2009,03,30,14,44,20.90
2009,03,30,14,45,11.90
2009,03,30,14,46,11.90
2009,03,30,14,47,11.90
2009,03,30,14,48,11.90
2009,03,30,14,49,11.90
2009,03,30,14,50,11.90
2009,03,30,14,51,11.90
2009,03,30,14,52,11.90
2009,03,30,14,53,29.80
2009,03,30,14,54,29.80
2009,03,30,14,55,29.80
2009,03,30,14,56,29.80
2009,03,30,14,57,14.80
2009,03,30,14,58,14.80
2009,03,30,14,59,18.00
2009,03,30,15,00,18.00
2009,03,30,15,01,18.00
2009,03,30,15,02,18.00
2009,03,30,15,03,5.90
2009,03,30,15,04,5.90
2009,03,30,15,05,5.90
2009,03,30,15,06,5.90
2009,03,30,15,07,5.90
2009,03,30,15,08,5.90
2009,03,30,15,09,5.90
2009,03,30,15,10,5.90
2009,03,30,15,11,5.90
2009,03,30,15,12,5.90
2009,03,30,15,13,5.90
2009,03,30,15,14,5.90
2009,03,30,15,15,26.90
2009,03,30,15,16,26.90
2009,03,30,15,17,29.80
2009,03,30,15,18,29.80
2009,03,30,15,19,29.80
2009,03,30,15,20,29.80
2009,03,30,15,21,26.90
2009,03,30,15,22,26.90
2009,03,30,15,23,26.90
2009,03,30,15,24,26.90
2009,03,30,15,25,26.90
2009,03,30,15,26,14.80
2009,03,30,15,27,14.80
2009,03,30,15,28,14.80
2009,03,30,15,29,14.80
2009,03,30,15,30,11.90
2009,03,30,15,31,11.90
2009,03,30,15,32,11.90
2009,03,30,15,33,11.90
2009,03,30,15,34,20.90
2009,03,30,15,35,11.90
2009,03,30,15,36,11.90
2009,03,30,15,37,11.90
2009,03,30,15,38,11.90
2009,03,30,15,39,18.00
2009,03,30,15,40,18.00
2009,03,30,15,41,18.00
2009,03,30,15,42,18.00
2009,03,30,15,43,18.00
2009,03,30,15,44,11.90
2009,03,30,15,45,11.90
2009,03,30,15,46,11.90
2009,03,30,15,47,11.90
2009,03,30,15,48,11.90
2009,03,30,15,49,11.90
2009,03,30,15,50,11.90
2009,03,30,15,51,11.90
2009,03,30,15,52,18.00
2009,03,30,15,53,18.00
2009,03,30,15,54,18.00
2009,03,30,15,55,18.00
2009,03,30,15,56,18.00
2009,03,30,15,57,14.80
2009,03,30,15,58,14.80
2009,03,30,15,59,14.80
2009,03,30,16,00,14.80
2009,03,30,16,01,14.80
2009,03,30,16,02,14.80
2009,03,30,16,03,14.80
2009,03,30,16,04,14.80
2009,03,30,16,05,14.80
2009,03,30,16,06,8.90
2009,03,30,16,07,8.90
2009,03,30,16,08,8.90
2009,03,30,16,09,8.90
2009,03,30,16,10,8.90
2009,03,30,16,11,8.90
2009,03,30,16,12,8.90
2009,03,30,16,13,8.90
2009,03,30,16,14,8.90
2009,03,30,16,15,8.90
2009,03,30,16,16,8.90
2009,03,30,16,17,8.90
2009,03,30,16,18,8.90
2009,03,30,16,19,8.90
2009,03,30,16,20,23.90
2009,03,30,16,21,23.90
2009,03,30,16,22,23.90
2009,03,30,16,23,23.90
2009,03,30,16,24,23.90
2009,03,30,16,25,23.90
2009,03,30,16,26,23.90
2009,03,30,16,27,23.90
2009,03,30,16,28,11.90
2009,03,30,16,29,11.90
2009,03,30,16,30,11.90
2009,03,30,16,31,11.90
2009,03,30,16,32,11.90
2009,03,30,16,33,14.80
2009,03,30,16,34,14.80
2009,03,30,16,35,14.80
2009,03,30,16,36,14.80
2009,03,30,16,37,14.80
2009,03,30,16,38,5.90
2009,03,30,16,39,5.90
2009,03,30,16,40,5.90
2009,03,30,16,41,5.90
2009,03,30,16,42,14.80
2009,03,30,16,43,14.80
2009,03,30,16,44,14.80
2009,03,30,16,45,14.80
2009,03,30,16,46,18.00
2009,03,30,16,47,18.00
2009,03,30,16,48,18.00
2009,03,30,16,49,18.00
2009,03,30,16,50,18.00
2009,03,30,16,51,14.80
2009,03,30,16,52,14.80
2009,03,30,16,53,14.80
2009,03,30,16,54,14.80
2009,03,30,16,55,14.80
2009,03,30,16,56,14.80
2009,03,30,16,57,14.80
2009,03,30,16,58,14.80
2009,03,30,16,59,14.80
2009,03,30,17,00,11.90
2009,03,30,17,01,11.90
2009,03,30,17,02,11.90
2009,03,30,17,03,11.90
2009,03,30,17,04,11.90
2009,03,30,17,05,20.90
2009,03,30,17,06,20.90
2009,03,30,17,07,20.90
2009,03,30,17,08,20.90
2009,03,30,17,09,11.90
2009,03,30,17,10,11.90
2009,03,30,17,11,11.90
2009,03,30,17,12,11.90
2009,03,30,17,13,11.90
2009,03,30,17,14,8.90
2009,03,30,17,15,8.90
2009,03,30,17,16,8.90
2009,03,30,17,17,8.90
2009,03,30,17,18,8.90
2009,03,30,17,19,8.90
2009,03,30,17,20,8.90
2009,03,30,17,21,8.90
2009,03,30,17,22,11.90
2009,03,30,17,23,18.00
2009,03,30,17,24,18.00
2009,03,30,17,25,18.00
2009,03,30,17,26,18.00
2009,03,30,17,27,18.00
2009,03,30,17,28,18.00
2009,03,30,17,29,18.00
2009,03,30,17,30,18.00
2009,03,30,17,31,18.00
2009,03,30,17,32,11.90
2009,03,30,17,33,11.90
2009,03,30,17,34,11.90
2009,03,30,17,35,11.90
2009,03,30,17,36,11.90
2009,03,30,17,37,11.90
2009,03,30,17,38,11.90
2009,03,30,17,39,11.90
2009,03,30,17,40,3.00
2009,03,30,17,41,3.00
2009,03,30,17,42,3.00
2009,03,30,17,43,3.00
2009,03,30,17,44,3.00
2009,03,30,17,45,3.00
2009,03,30,17,46,3.00
2009,03,30,17,47,3.00
2009,03,30,17,48,3.00
2009,03,30,17,49,3.00
2009,03,30,17,50,8.90
2009,03,30,17,51,8.90
2009,03,30,17,52,8.90
2009,03,30,17,53,8.90
2009,03,30,17,54,5.90
2009,03,30,17,55,5.90
2009,03,30,17,56,5.90
2009,03,30,17,57,5.90
2009,03,30,17,58,5.90
2009,03,30,17,59,0.00
2009,03,30,18,00,0.00
2009,03,30,18,01,0.00
2009,03,30,18,02,0.00
2009,03,30,18,03,5.90
2009,03,30,18,04,5.90
2009,03,30,18,05,5.90
2009,03,30,18,06,5.90
2009,03,30,18,07,5.90
2009,03,30,18,08,3.00
2009,03,30,18,09,3.00
2009,03,30,18,10,3.00
2009,03,30,18,11,3.00
2009,03,30,18,12,0.00
2009,03,30,18,13,0.00
2009,03,30,18,14,0.00
2009,03,30,18,15,0.00
2009,03,30,18,16,0.00
2009,03,30,18,17,0.00
2009,03,30,18,18,0.00
2009,03,30,18,19,0.00
2009,03,30,18,20,0.00
2009,03,30,18,21,0.00
2009,03,30,18,22,0.00
2009,03,30,18,23,0.00
2009,03,30,18,24,0.00
2009,03,30,18,25,0.00
2009,03,30,18,26,0.00
2009,03,30,18,27,0.00
2009,03,30,18,28,0.00
2009,03,30,18,29,0.00
2009,03,30,18,30,0.00
2009,03,30,18,31,0.00
2009,03,30,18,32,0.00
2009,03,30,18,33,0.00
2009,03,30,18,34,0.00
2009,03,30,18,35,0.00
2009,03,30,18,36,0.00
2009,03,30,18,37,0.00
2009,03,30,18,38,0.00
2009,03,30,18,39,0.00
2009,03,30,18,40,0.00
2009,03,30,18,41,0.00
2009,03,30,18,42,0.00
2009,03,30,18,43,0.00
2009,03,30,18,44,5.90